SUPERBIRD-C2

Last updated on Thu Jul 03 2025 00:02:45 GMT+0000 (Coordinated Universal Time)

1 33274U 08038A 25183.63784199 -.00000244 00000+0 00000+0 0 9993 2 33274 1.4586 85.8590 0000389 69.0537 139.5531 1.00272067102229
UTC large
Height (km)
Speed (km/s)
/
Latitude / Longitude
Inclination (degrees)
Orbital Period (minutes)
Azimuth
Elevation
Range (km)
Doppler Factor

Next 0 passes for location: London (51.5072 / 0.1276)

Sorry there are no passes over London.